| time (UTC) | temp F | wind direction | speed MPH | gust MPH | rain 1hr in | rain 24hr in | rain mn in | humidity % | barometer mb |
| 20260506194037 | 50 | 0 | 0.0 | 0.0 | 0.00 | 0.59 | 0.43 | 90 | 1014.3 |
| 20260506190043 | 51 | 0 | 0.0 | 0.0 | 0.00 | 0.65 | 0.43 | 86 | 1013.8 |
| 20260506185038 | 51 | 0 | 0.0 | 0.0 | 0.00 | 0.65 | 0.43 | 86 | 1013.7 |
| 20260506184036 | 52 | 0 | 0.0 | 0.0 | 0.00 | 0.66 | 0.43 | 86 | 1013.6 |
| 20260506183042 | 53 | 0 | 0.0 | 0.0 | 0.00 | 0.66 | 0.43 | 83 | 1013.5 |
| 20260506182040 | 53 | 0 | 0.0 | 0.0 | 0.00 | 0.67 | 0.43 | 83 | 1013.3 |
| 20260506180039 | 54 | 0 | 0.0 | 0.0 | 0.00 | 0.69 | 0.43 | 83 | 1013.0 |
| 20260506175039 | 53 | 0 | 0.0 | 0.0 | 0.00 | 0.69 | 0.43 | 83 | 1012.8 |
| 20260506174042 | 54 | 0 | 0.0 | 0.0 | 0.00 | 0.69 | 0.43 | 84 | 1012.7 |
| 20260506173038 | 53 | 0 | 0.0 | 0.0 | 0.00 | 0.69 | 0.43 | 86 | 1012.6 |
| 20260506171041 | 53 | 0 | 0.0 | 0.0 | 0.00 | 0.69 | 0.43 | 85 | 1012.5 |
| 20260506165031 | 54 | 0 | 0.0 | 0.0 | 0.00 | 0.69 | 0.43 | 83 | 1012.3 |
| 20260506164038 | 55 | 0 | 0.0 | 0.0 | 0.00 | 0.69 | 0.43 | 82 | 1012.2 |
| 20260506163041 | 55 | 0 | 0.0 | 0.0 | 0.00 | 0.69 | 0.43 | 83 | 1012.1 |
| 20260506162035 | 55 | 0 | 0.0 | 0.0 | 0.00 | 0.69 | 0.43 | 83 | 1012.1 |
| 20260506160036 | 55 | 0 | 0.0 | 0.0 | 0.00 | 0.69 | 0.43 | 83 | 1012.1 |
| 20260506155039 | 55 | 0 | 0.0 | 0.0 | 0.00 | 0.69 | 0.43 | 80 | 1012.0 |
| 20260506154034 | 56 | 0 | 0.0 | 0.0 | 0.00 | 0.69 | 0.43 | 77 | 1012.0 |
| 20260506153039 | 56 | 0 | 0.0 | 0.0 | 0.00 | 0.69 | 0.43 | 80 | 1012.0 |
| 20260506152036 | 56 | 0 | 0.0 | 0.0 | 0.00 | 0.69 | 0.43 | 82 | 1011.9 |
| 20260506151042 | 57 | 0 | 0.0 | 0.0 | 0.00 | 0.69 | 0.43 | 78 | 1011.8 |
| 20260506150036 | 57 | 0 | 0.0 | 0.0 | 0.00 | 0.69 | 0.43 | 81 | 1011.8 |
| 20260506144037 | 56 | 0 | 0.0 | 0.0 | 0.00 | 0.69 | 0.43 | 83 | 1011.8 |
| 20260506143037 | 56 | 0 | 0.0 | 0.0 | 0.00 | 0.69 | 0.43 | 84 | 1011.8 |
| 20260506141034 | 56 | 0 | 0.0 | 0.0 | 0.00 | 0.69 | 0.43 | 86 | 1011.8 |
| 20260506140040 | 55 | 0 | 0.0 | 0.0 | 0.00 | 0.69 | 0.43 | 83 | 1011.8 |
| 20260506134037 | 55 | 0 | 0.0 | 0.0 | 0.00 | 0.69 | 0.43 | 88 | 1011.8 |
| 20260506133041 | 54 | 0 | 0.0 | 0.0 | 0.00 | 0.69 | 0.43 | 91 | 1011.8 |
| 20260506132038 | 54 | 0 | 0.0 | 0.0 | 0.00 | 0.69 | 0.43 | 93 | 1011.8 |
| 20260506131036 | 55 | 0 | 0.0 | 0.0 | 0.00 | 0.69 | 0.43 | 90 | 1011.8 |
| 20260506125037 | 55 | 0 | 0.0 | 0.0 | 0.00 | 0.69 | 0.43 | 90 | 1011.6 |
| 20260506124038 | 54 | 0 | 0.0 | 0.0 | 0.00 | 0.69 | 0.43 | 92 | 1011.6 |
| 20260506120038 | 52 | 0 | 0.0 | 0.0 | 0.00 | 0.69 | 0.43 | 96 | 1011.6 |
| 20260506114039 | 53 | 0 | 0.0 | 0.0 | 0.00 | 0.69 | 0.43 | 90 | 1011.5 |
| 20260506113036 | 54 | 0 | 0.0 | 0.0 | 0.00 | 0.69 | 0.43 | 91 | 1011.5 |
| 20260506112035 | 53 | 0 | 0.0 | 0.0 | 0.00 | 0.69 | 0.43 | 95 | 1011.6 |
| 20260506111037 | 52 | 0 | 0.0 | 0.0 | 0.00 | 0.69 | 0.43 | 96 | 1011.7 |
| 20260506105039 | 51 | 0 | 0.0 | 0.0 | 0.00 | 0.69 | 0.43 | 10 | 1011.7 |
| 20260506104037 | 51 | 0 | 0.0 | 0.0 | 0.00 | 0.69 | 0.43 | 99 | 1011.8 |
| 20260506101037 | 51 | 0 | 0.0 | 0.0 | 0.00 | 0.69 | 0.43 | 10 | 1011.5 |
| 20260506095040 | 51 | 0 | 0.0 | 0.0 | 0.00 | 0.69 | 0.43 | 10 | 1011.5 |
| 20260506094034 | 50 | 0 | 0.0 | 0.0 | 0.00 | 0.69 | 0.43 | 10 | 1011.4 |
| 20260506093038 | 50 | 0 | 0.0 | 0.0 | 0.00 | 0.69 | 0.43 | 10 | 1011.2 |
| 20260506091040 | 50 | 0 | 0.0 | 0.0 | 0.00 | 0.69 | 0.43 | 10 | 1011.2 |
| 20260506085036 | 49 | 0 | 0.0 | 0.0 | 0.01 | 0.69 | 0.43 | 10 | 1011.2 |
| 20260506084035 | 49 | 0 | 0.0 | 0.0 | 0.01 | 0.69 | 0.43 | 10 | 1011.1 |
| 20260506083035 | 48 | 0 | 0.0 | 0.0 | 0.01 | 0.70 | 0.43 | 10 | 1011.0 |
| 20260506082038 | 48 | 0 | 0.0 | 0.0 | 0.03 | 0.70 | 0.43 | 10 | 1011.0 |
| 20260506081038 | 48 | 0 | 0.0 | 0.0 | 0.03 | 0.70 | 0.43 | 10 | 1010.9 |
| 20260506072035 | 48 | 0 | 0.0 | 0.0 | 0.06 | 0.69 | 0.43 | 10 | 1010.3 |
| 20260506062036 | 48 | 0 | 0.0 | 0.0 | 0.06 | 0.66 | 0.39 | 10 | 1010.3 |
| 20260506040036 | 47 | 0 | 0.0 | 0.0 | 0.05 | 0.69 | 0.34 | 10 | 1010.2 |
| 20260506034040 | 47 | 0 | 0.0 | 0.0 | 0.05 | 0.70 | 0.34 | 10 | 1010.2 |
| 20260506020041 | 48 | 0 | 0.0 | 0.0 | 0.06 | 0.91 | 0.29 | 10 | 1010.7 |
| 20260506011037 | 49 | 0 | 0.0 | 0.0 | 0.07 | 0.88 | 0.26 | 10 | 1010.7 |
| 20260506010023 | 49 | 0 | 0.0 | 0.0 | 0.08 | 0.87 | 0.25 | 10 | 1011.1 |
| 20260506004041 | 49 | 0 | 0.0 | 0.0 | 0.09 | 0.86 | 0.24 | 10 | 1011.1 |
| 20260506003043 | 49 | 0 | 0.0 | 0.0 | 0.09 | 0.84 | 0.22 | 10 | 1011.1 |
| 20260506001036 | 49 | 0 | 0.0 | 0.0 | 0.09 | 0.83 | 0.20 | 10 | 1011.1 |
| 20260505235039 | 49 | 0 | 0.0 | 0.0 | 0.09 | 0.80 | 0.17 | 10 | 1011.2 |
| 20260505234041 | 49 | 0 | 0.0 | 0.0 | 0.10 | 0.79 | 0.17 | 10 | 1011.2 |
| 20260505233039 | 49 | 0 | 0.0 | 0.0 | 0.12 | 0.77 | 0.15 | 10 | 1011.3 |
| 20260505232039 | 49 | 0 | 0.0 | 0.0 | 0.11 | 0.76 | 0.13 | 10 | 1011.3 |
| 20260505231035 | 50 | 0 | 0.0 | 0.0 | 0.12 | 0.75 | 0.13 | 10 | 1011.4 |
| 20260505230036 | 50 | 0 | 0.0 | 0.0 | 0.11 | 0.73 | 0.11 | 10 | 1011.5 |
| 20260505225039 | 50 | 0 | 0.0 | 0.0 | 0.11 | 0.72 | 0.09 | 10 | 1011.5 |
| 20260505224041 | 50 | 0 | 0.0 | 0.0 | 0.09 | 0.70 | 0.08 | 10 | 1011.5 |
| 20260505223038 | 50 | 0 | 0.0 | 0.0 | 0.08 | 0.69 | 0.06 | 10 | 1011.5 |
| 20260505222037 | 50 | 0 | 0.0 | 0.0 | 0.06 | 0.65 | 0.03 | 10 | 1011.5 |
| 20260505220036 | 50 | 0 | 0.0 | 0.0 | 0.06 | 0.63 | 0.01 | 10 | 1011.7 |
| 20260505215042 | 50 | 0 | 0.0 | 0.0 | 0.06 | 0.62 | 0.62 | 10 | 1011.7 |
| 20260505212041 | 50 | 0 | 0.0 | 0.0 | 0.09 | 0.61 | 0.61 | 10 | 1011.8 |
| 20260505211040 | 50 | 0 | 0.0 | 0.0 | 0.09 | 0.60 | 0.60 | 10 | 1011.9 |
| 20260505210034 | 50 | 0 | 0.0 | 0.0 | 0.11 | 0.60 | 0.59 | 10 | 1011.9 |
| 20260505202039 | 50 | 0 | 0.0 | 0.0 | 0.12 | 0.55 | 0.54 | 10 | 1011.7 |
| 20260505200036 | 50 | 0 | 0.0 | 0.0 | 0.10 | 0.52 | 0.51 | 10 | 1011.7 |